EW6468 Weather Reports


time (UTC)temp
C
wind
direction
speed
KPH
gust
KPH
rain 1hr
cm
rain 24hr
cm
rain mn
cm
humidity
%
barometer
mb
20260509224538 30 182 0.0 3.2 0.00 0.00 0.00 58 1005.8
20260509223045 30 182 1.6 3.2 0.00 0.00 0.00 58 1005.8
20260509221537 30 308 0.0 3.2 0.00 0.00 0.00 59 1005.7
20260509220052 30 355 0.0 3.2 0.00 0.00 0.00 60 1005.6
20260509214637 30 355 0.0 3.2 0.00 0.00 0.00 58 1005.7
20260509213040 30 355 0.0 3.2 0.00 0.00 0.00 60 1005.7
20260509211537 30 355 1.6 3.2 0.00 0.00 0.00 59 1005.8
20260509210034 30 355 0.0 4.8 0.00 0.00 0.00 61 1005.9
20260509204540 30 355 0.0 4.8 0.00 0.00 0.00 61 1006.1
20260509203028 30 355 1.6 4.8 0.00 0.00 0.00 58 1006.3
20260509201526 30 355 0.0 6.4 0.00 0.00 0.00 59 1006.5
20260509200032 30 329 0.0 3.2 0.00 0.00 0.00 57 1006.6
20260509194529 30 170 3.2 4.8 0.00 0.00 0.00 59 1006.8
20260509193030 30 170 1.6 4.8 0.00 0.00 0.00 60 1007.0
20260509191517 30 20 0.0 4.8 0.00 0.00 0.00 62 1007.3
20260509190015 29 37 1.6 4.8 0.00 0.00 0.00 64 1007.3
20260509184512 29 178 0.0 3.2 0.00 0.00 0.00 65 1007.6
20260509183010 28 178 0.0 3.2 0.00 0.00 0.00 69 1007.7
20260509181510 28 178 0.0 3.2 0.00 0.00 0.00 68 1007.9
20260509180008 28 178 0.0 3.2 0.00 0.00 0.00 70 1008.1
20260509174507 28 178 0.0 3.2 0.00 0.00 0.00 71 1008.4
20260509173004 28 174 0.0 3.2 0.00 0.00 0.00 72 1008.4
20260509171505 27 170 0.0 4.8 0.00 0.00 0.00 74 1008.1
20260509170058 26 151 0.0 3.2 0.00 0.00 0.00 78 1008.3
20260509164554 26 150 0.0 3.2 0.00 0.00 0.00 80 1008.3
20260509163103 25 267 0.0 3.2 0.00 0.00 0.00 80 1008.5
20260509161551 25 257 0.0 3.2 0.00 0.00 0.00 83 1008.6
20260509160052 25 257 0.0 3.2 0.00 0.00 0.00 84 1008.6
20260509154559 25 257 0.0 1.6 0.00 0.00 0.00 85 1008.7
20260509153046 24 257 0.0 1.6 0.00 0.00 0.00 85 1008.8
20260509151546 24 257 0.0 1.6 0.00 0.00 0.00 85 1008.8
20260509150044 24 257 0.0 1.6 0.00 0.00 0.00 85 1008.8
20260509144600 24 257 0.0 0.0 0.00 0.00 0.00 85 1008.6
20260509143042 24 257 0.0 1.6 0.00 0.00 0.00 85 1008.4
20260509141541 23 257 0.0 3.2 0.00 0.00 0.00 86 1008.1
20260509140056 23 257 0.0 0.0 0.00 0.00 0.00 86 1008.1
20260509134542 23 257 0.0 0.0 0.00 0.00 0.00 85 1008.5
20260509133038 23 257 0.0 0.0 0.00 0.00 0.00 85 1008.6
20260509131548 23 267 0.0 0.0 0.00 0.00 0.00 86 1008.7
20260509130036 23 267 0.0 0.0 0.00 0.00 0.00 85 1008.7
20260509124537 23 264 0.0 1.6 0.00 0.00 0.00 85 1008.6
20260509123032 23 264 0.0 0.0 0.00 0.00 0.00 85 1008.8
20260509121544 23 264 0.0 0.0 0.00 0.00 0.00 85 1008.6
20260509120035 23 264 0.0 1.6 0.00 0.00 0.00 85 1007.8
20260509114532 23 264 0.0 1.6 0.00 0.00 0.00 84 1007.7
20260509113028 23 264 0.0 1.6 0.00 0.00 0.00 85 1008.1
20260509111528 23 264 0.0 0.0 0.00 0.00 0.00 85 1008.3
20260509110028 23 264 0.0 1.6 0.00 0.00 0.00 85 1008.3
20260509104524 23 264 0.0 1.6 0.00 0.00 0.00 84 1008.4
20260509103022 22 264 0.0 0.0 0.00 0.00 0.00 84 1008.3
20260509101524 23 264 0.0 0.0 0.00 0.00 0.00 84 1007.6
20260509100024 22 264 0.0 0.0 0.00 0.00 0.00 84 1007.2
20260509094519 23 264 0.0 0.0 0.00 0.00 0.00 84 1007.3
20260509093017 23 264 0.0 0.0 0.00 0.00 0.00 84 1007.7
20260509091514 23 264 0.0 1.6 0.00 0.00 0.00 84 1007.8
20260509090013 22 264 0.0 0.0 0.00 0.00 0.00 83 1007.9
20260509084514 22 264 0.0 0.0 0.00 0.00 0.00 83 1007.8
20260509083010 22 264 0.0 0.0 0.00 0.00 0.00 83 1007.8
20260509081510 22 264 0.0 0.0 0.00 0.00 0.00 83 1007.7
20260509080009 22 264 0.0 0.0 0.00 0.00 0.00 83 1007.7
20260509074509 22 264 0.0 0.0 0.00 0.00 0.00 83 1007.8
20260509073005 22 264 0.0 0.0 0.00 0.00 0.00 83 1008.0
20260509071505 22 264 0.0 1.6 0.00 0.00 0.00 83 1008.0
20260509070004 22 264 0.0 1.6 0.00 0.00 0.00 82 1008.1
20260509064503 22 264 0.0 0.0 0.00 0.00 0.00 82 1008.1
20260509063002 22 264 0.0 0.0 0.00 0.00 0.00 82 1008.1
20260509061600 22 264 0.0 0.0 0.00 0.00 0.00 82 1008.3
20260509054606 22 264 0.0 0.0 0.00 0.00 0.00 82 1008.5
20260509053119 22 264 0.0 0.0 0.00 0.00 0.00 82 1008.6
20260509051546 22 264 0.0 1.6 0.00 0.00 0.00 82 1008.4
20260509050044 22 264 0.0 3.2 0.00 0.00 0.00 82 1008.6
20260509044543 22 264 0.0 3.2 0.00 0.00 0.00 81 1008.7
20260509043101 22 264 0.0 1.6 0.00 0.00 0.00 81 1008.5
20260509041556 22 264 0.0 3.2 0.00 0.00 0.00 81 1008.5
20260509040045 22 264 0.0 1.6 0.00 0.00 0.00 81 1008.4
20260509034558 22 264 0.0 1.6 0.00 0.00 0.00 81 1008.2
20260509033041 22 264 0.0 3.2 0.00 0.00 0.00 81 1008.3
20260509031540 22 264 0.0 3.2 0.00 0.00 0.00 81 1008.0
20260509030040 22 264 0.0 1.6 0.00 0.00 0.00 81 1008.0
20260509024539 22 264 0.0 3.2 0.00 0.00 0.00 81 1008.0
20260509023039 22 331 0.0 3.2 0.00 0.00 0.00 80 1007.8
20260509021538 22 348 0.0 4.8 0.00 0.00 0.00 80 1007.7
20260509020049 22 15 0.0 3.2 0.00 0.00 0.00 80 1007.7
20260509014536 22 282 0.0 3.2 0.00 0.00 0.00 80 1007.6
20260509013047 22 273 0.0 4.8 0.00 0.00 0.00 80 1007.6
20260509011536 22 5 0.0 4.8 0.00 0.00 0.00 80 1007.4
20260509010048 22 15 1.6 4.8 0.00 0.00 0.00 79 1007.3
20260509004534 23 5 0.0 3.2 0.00 0.00 0.00 79 1007.3
20260509003033 23 5 0.0 3.2 0.00 0.00 0.00 79 1007.3
20260509001532 23 334 0.0 4.8 0.00 0.00 0.00 79 1007.6
20260509000032 23 336 1.6 4.8 0.00 0.00 0.00 79 1007.5
20260508234531 23 286 0.0 3.2 0.00 0.00 0.00 78 1007.7
20260508233031 23 139 0.0 4.8 0.00 0.00 0.00 77 1007.7
20260508231530 23 12 0.0 3.2 0.00 0.00 0.00 77 1007.8
20260508230038 23 188 1.6 4.8 0.00 0.00 0.00 76 1007.5